Wind_Speed
20 22 22 21 23 18 17 16 15 14 14 13 12 13 14 15 13 13 12 12 12 12 13 12 12 13 14 14 14 16 17 20 20 19 19 18 18 21 25 28 29 30 28
20 22 21 21 18 17 15 14 15 14 13 11 11 11 12 11 11 11 11 11 12 13 12 13 14 13 13 13 13 15 17 18 19 19 19 17 17 19 24 28 28 31 29
22 21 19 18 17 17 15 15 14 13 11 10 9 10 10 10 11 11 11 10 10 11 11 12 14 13 11 9 9 11 15 17 18 20 18 16 15 19 23 28 29 32 33
20 20 19 17 16 16 14 13 12 11 10 9 8 8 8 7 7 8 9 8 7 8 9 12 14 15 11 7 8 11 15 17 19 19 16 15 15 19 23 28 30 32 35
22 20 18 16 14 14 14 13 11 10 10 9 7 6 5 4 4 4 4 6 8 10 11 15 17 16 11 8 9 12 16 18 19 18 15 14 15 17 21 27 30 30 33
19 17 16 14 13 13 14 13 12 11 11 9 7 4 2 1 2 5 7 8 11 13 15 16 17 16 12 10 10 14 15 17 18 16 14 14 16 15 19 24 29 29 29
15 15 14 13 13 13 13 13 11 9 10 8 5 2 1 3 4 7 8 11 13 16 18 17 15 13 11 9 11 13 14 15 15 14 13 13 15 15 15 20 27 29 27
16 15 13 11 10 9 9 8 8 7 6 6 6 5 4 5 6 9 10 13 15 15 14 13 11 11 9 7 10 11 13 13 13 13 11 13 14 15 14 16 20 25 28
14 14 13 12 10 8 7 5 4 4 4 4 5 6 5 7 7 8 10 12 12 13 15 12 11 9 8 7 8 10 11 10 10 12 11 14 15 16 15 14 15 19 23
14 12 11 10 9 8 8 8 7 6 5 4 5 6 6 8 9 9 9 10 13 13 13 10 10 9 7 7 8 9 9 8 7 8 9 13 15 16 16 16 16 15 17
10 11 9 8 7 7 7 7 6 5 5 5 5 5 6 6 7 8 11 11 10 11 10 8 10 9 7 8 7 8 9 6 5 6 9 11 13 14 14 14 15 16 16
11 9 9 9 8 6 6 5 5 5 5 5 5 5 4 5 6 7 7 7 8 8 7 7 8 7 7 7 7 7 7 5 5 5 8 10 11 12 13 13 14 15 16
9 9 7 7 7 7 6 4 4 3 3 4 4 4 3 3 2 3 3 5 5 6 7 7 7 7 6 6 6 6 5 4 4 5 6 8 8 9 10 12 13 13 14
9 8 8 7 8 8 7 7 6 4 4 4 4 4 4 2 2 2 3 3 5 6 5 5 5 6 6 6 7 6 5 5 5 5 5 5 5 7 8 9 11 11 11
7 7 7 7 7 8 9 9 8 8 7 6 5 6 7 5 4 5 5 5 6 7 6 5 6 7 6 5 5 6 6 6 6 6 5 5 5 5 6 6 7 10 11
9 9 5 4 6 7 9 9 10 10 11 10 8 8 9 9 8 7 7 7 7 7 6 5 5 6 7 6 4 4 6 5 6 7 6 6 4 3 3 3 4 5 7
9 11 10 8 8 10 11 10 10 11 11 10 10 10 10 10 10 10 8 7 7 7 7 5 4 6 5 5 5 5 6 6 7 8 9 9 9 9 8 8 8 8 5
14 14 13 11 9 12 15 13 13 13 12 11 11 11 10 10 11 11 12 10 10 10 10 10 9 8 6 7 7 7 7 10 10 10 10 10 12 14 15 15 14 12 12
17 16 16 15 13 11 15 16 17 16 16 15 15 15 14 14 14 15 15 14 13 13 13 15 15 13 12 10 9 10 9 11 12 14 15 15 15 16 18 20 21 20 18
21 20 20 19 18 16 15 18 19 18 18 18 19 20 20 20 19 19 20 18 18 17 17 17 19 19 17 17 16 15 15 13 16 16 17 19 19 20 20 21 23 24 24
25 24 24 24 23 22 22 21 20 20 23 23 23 24 22 23 25 23 26 22 22 21 21 21 22 23 22 23 22 21 21 21 19 21 21 22 23 23 25 25 27 27 28
28 28 29 29 28 28 28 26 26 24 26 28 28 26 25 24 24 27 25 26 25 24 24 23 23 24 26 26 26 25 24 23 25 26 26 26 26 27 27 28 27 28 32
29 25 29 32 31 32 31 29 31 33 32 31 31 31 30 28 30 27 27 28 30 29 26 25 28 29 28 29 29 30 30 29 30 28 29 31 32 32 32 32 33 34 33
34 43 32 30 27 35 35 34 35 32 31 34 33 36 35 35 32 33 33 33 34 33 32 33 33 33 34 34 35 33 33 35 36 36 35 35 39 39 39 38 38 38 37
41 36 41 40 39 31 31 34 37 38 37 32 34 32 36 40 38 38 38 41 38 40 40 38 39 38 38 35 36 37 33 34 29 33 35 37 36 40 42 44 45 44 41
42 48 43 39 41 40 38 37 36 35 34 41 43 35 38 36 40 45 48 43 44 45 47 42 38 38 40 39 38 36 36 39 42 42 40 41 41 39 43 44 42 42 39
Wind_Direction
139 140 140 140 144 139 140 141 136 127 123 119 112 105 95 90 94 87 81 75 67 59 48 42 35 32 27 22 19 19 12 13 10 6 8 6 10 7 6 2 4 2 354
138 140 145 143 142 139 140 135 128 132 130 122 109 95 83 84 82 79 73 62 56 47 42 35 35 34 26 21 15 8 11 10 9 6 11 10 16 16 11 11 14 15 15
135 138 137 135 137 139 139 135 135 134 131 118 103 86 77 76 74 66 58 49 44 41 30 27 28 22 20 16 9 2 11 7 10 7 12 16 22 25 20 18 25 27 33
133 137 132 132 137 141 141 133 128 131 118 109 98 89 82 71 61 50 42 33 24 18 13 9 17 17 14 15 5 8 12 5 8 9 16 22 30 34 30 27 32 36 44
136 140 138 133 133 134 133 127 120 119 117 111 106 98 91 70 37 18 12 359 356 357 355 356 2 22 37 26 8 15 11 5 6 14 19 30 37 39 40 37 37 40 47
138 140 142 149 148 144 140 136 134 134 130 124 126 137 127 43 332 328 339 340 346 347 349 355 356 31 52 43 20 17 10 3 9 20 24 34 43 42 44 47 47 46 49
145 147 151 158 160 157 155 148 146 147 145 145 150 178 251 285 308 319 331 341 338 340 355 6 6 37 55 45 30 17 8 7 15 26 31 41 47 49 44 52 57 56 56
146 150 155 164 166 166 168 168 162 168 176 183 197 218 250 285 306 315 331 332 345 1 22 15 23 43 54 41 36 18 11 15 16 27 35 47 49 51 50 50 60 65 64
136 142 152 160 163 168 166 179 205 218 215 239 251 253 264 283 299 310 328 341 1 10 17 28 30 43 42 46 32 20 11 19 22 28 37 50 50 47 49 51 55 62 64
139 139 143 145 150 158 156 165 174 189 204 227 256 279 283 293 308 330 343 340 343 5 16 37 34 34 28 12 9 11 13 21 23 30 40 50 53 50 47 49 50 57 65
141 143 144 147 154 169 178 181 187 202 206 220 246 271 295 305 320 320 335 347 11 26 30 26 19 18 4 359 2 9 9 12 18 25 37 47 50 51 49 50 50 51 55
147 154 161 163 165 176 187 190 199 216 237 239 241 255 281 300 319 339 345 2 12 22 24 11 5 359 356 4 9 11 4 6 6 15 28 39 42 41 44 45 55 54 51
172 171 181 179 179 192 204 208 216 229 242 257 261 252 245 252 288 328 351 9 10 7 12 2 356 352 357 357 357 7 6 358 349 19 21 29 27 33 37 36 42 54 59
195 193 199 199 209 212 214 224 230 229 246 252 261 261 256 253 268 278 309 320 335 355 7 352 342 342 348 357 357 4 359 344 359 3 7 20 30 54 52 49 52 52 58
199 209 204 206 212 226 234 237 239 242 244 243 253 267 268 263 261 272 286 300 318 330 340 344 338 327 329 339 354 357 353 345 352 6 14 13 24 38 50 55 41 38 32
210 199 207 233 251 245 242 239 244 249 253 261 265 274 283 282 275 276 285 293 294 301 307 317 310 305 309 311 330 324 318 323 322 326 329 328 333 340 2 19 353 8 15
204 209 232 248 250 253 248 243 245 249 254 260 260 267 278 284 285 284 281 282 281 283 288 289 272 261 269 276 285 274 285 288 298 300 302 305 305 307 300 296 299 311 311
220 225 235 238 243 244 239 238 243 249 252 255 256 259 263 273 283 284 284 275 274 279 280 280 275 268 264 266 271 266 271 280 284 281 285 284 287 290 287 285 281 285 286
228 232 239 242 237 236 230 235 240 244 246 249 255 259 261 264 268 275 277 277 279 279 281 285 286 281 277 272 273 277 276 275 275 279 281 283 280 276 274 278 283 285 283
239 241 244 247 249 245 239 238 249 250 248 252 254 260 262 259 259 263 268 270 272 272 275 279 281 280 279 280 276 271 268 263 272 274 276 278 277 278 277 275 273 273 275
252 252 252 251 254 255 253 249 248 250 254 256 258 262 263 265 264 271 263 262 268 270 271 276 278 279 282 284 285 286 279 278 266 268 269 270 270 274 275 278 278 276 275
251 252 259 259 258 256 256 255 252 251 254 257 258 256 258 261 269 269 263 261 265 266 268 271 274 277 280 280 283 281 279 276 277 276 273 273 272 274 276 278 277 276 274
254 253 260 258 261 262 255 256 259 261 253 251 257 261 263 261 261 263 263 263 263 260 256 263 271 273 275 278 279 280 285 284 283 274 270 271 270 271 274 275 273 279 282
252 252 265 253 260 256 250 266 265 261 261 258 260 254 256 258 257 263 261 258 261 258 261 268 271 272 274 274 276 280 284 281 279 281 278 276 277 276 280 278 276 273 274
265 264 269 260 260 259 262 265 267 259 257 260 255 266 262 259 256 258 261 256 253 254 257 262 267 270 272 270 276 280 280 282 279 274 279 281 277 278 276 278 278 276 279
262 260 266 266 247 257 261 264 265 261 254 257 255 270 263 261 264 264 260 259 259 266 260 263 265 266 267 269 271 276 278 280 279 278 279 282 282 280 278 279 280 281 279
Height
5920 5922 5924 5927 5930 5932 5933 5935 5937 5941 5943 5945 5946 5946 5947 5948 5948 5948 5947 5946 5945 5944 5943 5941 5940 5938 5935 5932 5928 5925 5922 5918 5915 5911 5906 5902 5897 5890 5886 5880 5873 5864 5852
5922 5924 5926 5930 5932 5933 5935 5937 5940 5943 5945 5946 5948 5949 5950 5950 5950 5950 5949 5948 5948 5946 5944 5943 5941 5939 5936 5933 5930 5925 5922 5918 5915 5912 5907 5903 5898 5892 5887 5881 5874 5865 5853
5926 5928 5931 5933 5934 5936 5937 5940 5943 5946 5947 5949 5950 5951 5952 5952 5951 5951 5950 5950 5948 5946 5945 5943 5941 5939 5936 5933 5930 5927 5923 5919 5916 5912 5908 5905 5900 5894 5890 5883 5876 5868 5858
5930 5933 5934 5936 5937 5938 5940 5942 5946 5947 5949 5951 5952 5953 5953 5953 5952 5951 5951 5950 5948 5947 5945 5943 5941 5939 5935 5932 5930 5927 5924 5920 5917 5913 5910 5906 5902 5897 5893 5887 5879 5873 5865
5934 5935 5938 5940 5940 5941 5943 5945 5947 5948 5950 5952 5952 5953 5954 5953 5953 5952 5951 5950 5948 5947 5946 5943 5941 5938 5934 5932 5930 5928 5925 5921 5918 5915 5912 5908 5904 5900 5896 5891 5883 5878 5872
5937 5939 5941 5942 5943 5944 5945 5947 5948 5949 5951 5952 5953 5954 5953 5953 5953 5952 5951 5950 5949 5947 5945 5942 5940 5937 5934 5932 5930 5929 5926 5923 5920 5916 5914 5910 5907 5904 5900 5896 5889 5884 5879
5939 5940 5943 5945 5945 5946 5947 5948 5949 5950 5951 5952 5954 5954 5953 5953 5952 5952 5951 5950 5949 5946 5944 5942 5939 5936 5935 5933 5931 5929 5927 5924 5922 5918 5916 5912 5909 5907 5904 5901 5895 5890 5886
5940 5941 5944 5945 5946 5947 5948 5949 5950 5951 5952 5953 5953 5953 5954 5953 5952 5951 5950 5948 5947 5946 5944 5942 5939 5936 5935 5934 5932 5931 5929 5927 5925 5921 5919 5915 5912 5910 5908 5905 5900 5897 5893
5941 5943 5944 5945 5946 5947 5949 5950 5951 5952 5953 5953 5953 5953 5953 5952 5952 5950 5949 5947 5947 5946 5944 5942 5940 5938 5937 5936 5933 5931 5930 5928 5926 5924 5922 5918 5915 5913 5912 5909 5906 5903 5901
5943 5944 5946 5947 5947 5947 5948 5949 5950 5951 5952 5952 5952 5952 5952 5952 5952 5950 5949 5947 5946 5946 5945 5943 5941 5939 5938 5937 5935 5932 5931 5930 5928 5926 5924 5920 5918 5917 5916 5913 5911 5908 5906
5944 5945 5946 5947 5947 5948 5948 5949 5949 5951 5951 5951 5951 5950 5951 5951 5951 5950 5948 5947 5946 5945 5945 5943 5941 5940 5938 5937 5936 5935 5933 5932 5930 5928 5926 5923 5921 5920 5919 5917 5915 5913 5910
5944 5946 5946 5946 5947 5947 5948 5949 5950 5949 5951 5951 5951 5950 5950 5950 5950 5949 5948 5947 5946 5945 5944 5943 5941 5940 5939 5938 5937 5936 5934 5933 5932 5930 5928 5926 5925 5924 5922 5921 5919 5917 5914
5943 5944 5945 5946 5947 5947 5948 5948 5948 5950 5950 5951 5950 5950 5950 5950 5950 5949 5948 5947 5947 5945 5945 5944 5942 5941 5940 5939 5937 5936 5935 5933 5932 5930 5930 5928 5928 5926 5925 5924 5923 5920 5918
5943 5944 5945 5946 5946 5947 5947 5948 5947 5948 5949 5949 5950 5950 5950 5950 5949 5948 5947 5947 5947 5946 5946 5945 5943 5941 5940 5941 5939 5937 5936 5934 5932 5931 5930 5929 5928 5927 5925 5924 5923 5921 5920
5943 5944 5945 5945 5945 5946 5946 5946 5946 5947 5947 5947 5948 5949 5950 5950 5949 5947 5947 5947 5947 5946 5945 5944 5943 5942 5941 5940 5940 5939 5937 5935 5934 5933 5932 5931 5930 5929 5928 5926 5925 5924 5922
5942 5943 5944 5945 5944 5945 5945 5945 5945 5945 5945 5946 5947 5947 5948 5947 5947 5946 5945 5945 5945 5944 5943 5943 5942 5941 5940 5940 5940 5939 5937 5936 5934 5933 5932 5931 5930 5929 5929 5928 5926 5925 5924
5940 5941 5942 5943 5943 5943 5943 5944 5944 5944 5944 5945 5945 5945 5946 5946 5946 5945 5944 5943 5942 5941 5941 5940 5939 5938 5938 5938 5938 5938 5936 5935 5934 5934 5933 5932 5931 5931 5930 5929 5928 5927 5924
5935 5937 5938 5939 5940 5940 5940 5941 5941 5942 5942 5943 5943 5943 5943 5943 5943 5943 5943 5941 5940 5939 5938 5938 5937 5937 5937 5936 5936 5935 5935 5934 5933 5932 5931 5930 5929 5928 5927 5927 5926 5926 5925
5931 5932 5933 5934 5935 5936 5936 5937 5938 5938 5939 5939 5939 5939 5939 5940 5940 5940 5939 5939 5938 5937 5936 5935 5935 5936 5936 5935 5934 5933 5932 5930 5930 5929 5928 5927 5926 5925 5924 5923 5923 5922 5921
5928 5928 5928 5929 5929 5931 5931 5933 5934 5935 5936 5936 5936 5936 5936 5936 5936 5936 5935 5935 5934 5933 5932 5932 5931 5931 5932 5932 5931 5930 5927 5927 5926 5925 5924 5923 5922 5922 5921 5920 5918 5917 5915
5924 5924 5925 5924 5925 5925 5925 5926 5928 5929 5930 5931 5931 5931 5931 5931 5931 5929 5929 5929 5930 5929 5928 5927 5926 5926 5927 5927 5927 5927 5926 5924 5922 5920 5919 5918 5916 5916 5914 5914 5913 5911 5909
5917 5919 5919 5920 5920 5920 5920 5920 5921 5922 5923 5924 5925 5926 5926 5925 5925 5924 5923 5924 5924 5924 5922 5921 5921 5920 5920 5919 5919 5919 5919 5919 5920 5917 5915 5913 5911 5910 5909 5907 5904 5902 5900
5910 5910 5912 5913 5913 5913 5913 5914 5915 5915 5916 5916 5917 5918 5918 5919 5918 5919 5918 5918 5917 5916 5914 5914 5914 5913 5913 5912 5911 5911 5912 5912 5911 5910 5908 5907 5906 5904 5902 5900 5897 5895 5892
5899 5901 5897 5902 5904 5904 5906 5907 5907 5908 5908 5909 5909 5909 5909 5909 5910 5911 5911 5910 5910 5909 5909 5909 5908 5907 5905 5904 5903 5903 5902 5900 5900 5901 5900 5900 5896 5896 5894 5891 5891 5888 5885
5889 5887 5887 5890 5894 5894 5895 5896 5897 5897 5899 5900 5899 5900 5900 5900 5902 5899 5898 5899 5899 5899 5899 5899 5898 5898 5897 5896 5896 5895 5894 5891 5890 5888 5887 5887 5889 5884 5882 5880 5877 5877 5877
5882 5881 5881 5882 5883 5883 5884 5886 5887 5887 5888 5890 5891 5891 5890 5890 5890 5890 5891 5890 5889 5889 5888 5889 5888 5887 5887 5886 5884 5883 5882 5881 5879 5877 5876 5873 5871 5873 5872 5869 5868 5866 5866